Other Surface Observations
Issued by NWS

Home | Current Version | Previous Version | Text Only | Print | Product List | Glossary On
Versions: 1 2 3 4 5 6 7 8 9 10 11 12 13 14 15 16 17 18 19 20 21 22 23 24 25 26 27 28 29 30 31 32 33 34 35 36 37 38 39 40 41 42 43 44 45 46 47 48 49 50
607
SXUS52 KTAE 292105
OSOTAE
OSOTAE
North Florida/South Alabama/Southwest Georgia Weather Roundup
National Weather Service Tallahassee Florida
500 PM EDT THU SEP 29 2016

Note: "fair" indicates few or no clouds below 12,000 feet with no
significant weather and/or obstructions to visibility.

!FLZ017-115-028-034-025-292200
...North Florida...

CITY           SKY/WX    TMP DP  RH WIND       PRES   REMARKS
TALLAHASSEE    MOSUNNY   91  64  40 W10       29.94S HX  92
APALACHICOLA   SUNNY     87  68  52 NW15      29.96S HX  90
PERRY          PTSUNNY   88  69  52 SW9       29.96S HX  92
CROSS CITY     SUNNY     88  72  58 W9        29.96S HX  94
JACKSONVILLE   PTSUNNY   90  71  53 SW12      29.93S HX  96
$$

!FLZ112-006-005-002-011-292200
...Florida Panhandle...

CITY           SKY/WX    TMP DP  RH WIND       PRES   REMARKS
MARIANNA       SUNNY     88  58  36 W12       29.94S
BONIFAY        FAIR      88  58  36 VRB5      29.95F
PANAMA CITY NW FAIR      88  61  40 SW15      29.94F
TYNDALL AFB    SUNNY     85  61  43 NW13      29.96F
TYND DRONE APT FAIR      84  63  49 W7        29.96F
DE FUNIAK SPR  FAIR      86  60  40 NW10      29.97S
EGLIN AFB      MOSUNNY   90  58  34 NW14      29.95F
DESTIN         SUNNY     89  65  44 SW9       29.95F HX  91
HURLBURT       MOSUNNY   88  60  38 NW13      29.95F
CRESTVIEW      SUNNY     87  59  38 NW12      29.98F
PENSACOLA      SUNNY     87  63  44 N8        29.97F
$$

!ALZ063-066-292200
...South Alabama...

CITY           SKY/WX    TMP DP  RH WIND       PRES   REMARKS
DOTHAN         SUNNY     87  59  38 NW13      29.99S
OZARK CAIRNS   SUNNY     84  59  42 NW8       29.96S
FT RUCKER HELI SUNNY     85  58  39 NW10      29.95F
RUCKER HELI 3  NOT AVBL
RUCKER HELI 2  FAIR      86  57  37 NW10G18   29.96
FLORALA APT    SUNNY     83  56  39 N8        30.00
ANDALUSIA      SUNNY     86  57  37 NW13      29.99S
TROY           SUNNY     82  52  35 NW13      29.99F
EUFALA         FAIR      88  54  31 W9        29.94S
MOBILE         MOSUNNY   83  61  47 N7        30.02F
$$

!GAZ120>161-292200
...Southwest and South Central Georgia...

CITY           SKY/WX    TMP DP  RH WIND       PRES   REMARKS
THOMASVILLE    FAIR      90  63  40 W9        29.95S HX  90
BAINBRIDGE     SUNNY     90  61  37 CALM      29.94F
MOODY AFB      MOSUNNY   90  63  40 W13       29.92S HX  91
VALDOSTA       MOSUNNY   90  68  48 VRB3      29.93S HX  94
MOULTRIE       MOSUNNY   86  61  42 W5        29.95R
BLAKELY        MOSUNNY   90  54  29 W8        29.94S
ALBANY         MOSUNNY   89  55  31 SW10      29.94S
TIFTON         FAIR      88  59  38 W10       29.93S
FITZGERALD     MOCLDY    91  65  41 SW5       29.95S HX  93
CORDELE        FAIR      91  53  26 W15       29.93S
AMERICUS       FAIR      86  46  25 W13       29.95R
HOMERVILLE     FAIR      90  68  48 W7        29.93S HX  93
$$

!GMZ750-755-770-775-292200
...Coastal and Buoy Obs...

STATION/POSITION TIME  TEMP    WIND        PRES    VSBY  WAVE
                       AIR SEA DIR/SP/G                  HT/PER
                 (UTC) (F)     (DEG/KT/KT) (MB)    (MI)  (FT/S)
KEATON BEACH     2100   83     230/  9/ 10 1014.2F
CEDAR KEY        2000   85     290/  8/ 11 1015.3F
C TOWER          2100   83     260/  9/ 10 1015.5F
APALACHICOLA BUO 2050   84 85  330/  8/ 12 1015.1F         2/ 4
PANAMA CITY BUOY 1950   83 85              1015.8          2/ 4
MOBILE BUOY      2000   82 85  310/ 10/ 12 1016.0F
ORANGE BCH AL BU 2050   81 86  300/ 12/ 14 1015.7F         1/ 2
$$




USA.gov is the U.S. government's official web portal to all federal, state and local government web resources and services.